Skip Page Navigation
NASA JPL Caltech
NASA Logo - Jet Propulsion Laboratory + View the NASA Portal
+ Near-Earth Object (NEO) Program
Search JPL
JPL Home Earth Solar System Stars & Galaxies Technology
JPL Solar System Dynamics
BODIES ORBITS EPHEMERIDES TOOLS PHYSICAL DATA DISCOVERY FAQ SITE MAP
JPL Small-Body Database Browser
Search: [ help ]  
221516 Bergen-Enkheim (2006 PR4)
Classification: Inner Main-belt Asteroid          SPK-ID: 2221516
Ephemeris | Orbit Diagram | Orbital Elements | Physical Parameters | Discovery Circumstances ]

[ hide orbit diagram ]
Orbit Diagram
Note: Make sure you have Java enabled on your browser to see the applet. This applet is provided as a 3D orbit visualization tool. The applet was implemented using 2-body methods, and hence should not be used for determining accurate long-term trajectories (over several years or decades) or planetary encounter circumstances. For accurate long-term ephemerides, please instead use our Horizons system.
Orbit Viewer

Additional Notes: the orbits shown in the applet are color coded. The planets are white lines, and the asteroid/comet is a blue line. The bright white line indicates the portion of the orbit that is above the ecliptic plane, and the darker portion is below the ecliptic plane. Likewise for the asteroid/comet orbit, the light blue indicates the portion above the ecliptic plane, and the dark blue the portion below the ecliptic plane.

Orbit Viewer applet originally written and kindly provided by Osamu Ajiki (AstroArts), and further modified by Ron Baalke (JPL).


Orbital Elements at Epoch 2456400.5 (2013-Apr-18.0) TDB
Reference: MPO257965 (heliocentric ecliptic J2000)
 Element Value Uncertainty (1-sigma)   Units 
e 0.1145300 n/a  
a 1.9227399 n/a AU
q 1.7025285 n/a AU
i 17.91784 n/a deg
node 259.20599 n/a deg
peri 208.28760 n/a deg
M 49.44255 n/a deg
tp 2456266.7549910
(2012-Dec-05.25499100)
n/a JED
period 973.8211976
2.67
n/a
n/a
d
yr
n 0.36967772 n/a deg/d
Q 2.1429513 n/a AU
  Orbit Determination Parameters
   # obs. used (total)      104  
   first obs. used      2001-??-??  
   last obs. used      2013-03-07  
   # oppositions      6  
   planetary ephem.      DE403  
   condition code      1  
   fit RMS      0.48  
   data source      MPC:mpu  
   producer      MPCLINUX  

Additional Information
 T_jup = 3.855 

Ephemeris | Orbit Diagram | Orbital Elements | Physical Parameters | Discovery Circumstances ]

Physical Parameter Table
Parameter Symbol Value Units Sigma Reference Notes
absolute magnitude H 17.0 mag n/a MPO257965  

221516 Bergen-Enkheim           Discovered 2006 Aug. 13 by U. Suessenberger at the Bergen-Enkheim Observatory.
Bergen-Enkheim is the easternmost borough of Frankfurt am Main. Since 2005 it has hosted the discoverer's observatory, which is dedicated to confirmation of near-earth objects and research on minor planets.
NOTE: some special characters may not display properly (any characters within {} are an attempt to place the proper accent above a character)
Reference: 20091202/MPCPages.arcLast Updated: 2010-04-12
Ephemeris | Orbit Diagram | Orbital Elements | Physical Parameters | Discovery Circumstances ]
ABOUT SSD CREDITS/AWARDS PRIVACY/COPYRIGHT GLOSSARY LINKS
FirstGov 2013-May-25 08:18 UT
(server date/time)  
NASA Home Page
Site Manager:   Donald K. Yeomans
Webmaster  Alan B. Chamberlin